Regional Weather Roundup
Issued by NWS

Home | Current Version | Previous Version | Graphics & Text | Print | Product List | Glossary Off
Versions: 1 2 3 4 5 6 7 8 9 10 11 12 13 14 15 16 17 18 19 20 21 22 23 24 25 26 27 28 29 30 31 32 33 34 35 36 37 38 39 40 41 42 43 44 45 46 47 48 49 50

000
ASUS43 KDTX 261110
RWRMI
MICHIGAN HOURLY REGIONAL WEATHER ROUNDUP
NATIONAL WEATHER SERVICE DETROIT/PONTIAC MI
600 AM EST MON JAN 26 2015

NOTE: "FAIR" INDICATES FEW OR NO CLOUDS BELOW 12,000 FEET WITH NO
SIGNIFICANT WEATHER AND/OR OBSTRUCTION TO VISIBILITY.

MIZ047>049-052>055-059>063-066>070-074>076-081>083-261200-
SOUTHEAST LOWER MICHIGAN

CITY           SKY/WX    TMP DP  RH WIND       PRES   REMARKS
ADRIAN         CLEAR      9   5  84 N8        29.91F
ALMA           CLEAR      6   4  91 CALM      29.98S
ANN ARBOR      CLEAR     11   6  81 NE7       29.91F
BAD AXE        CLEAR      3   1  91 E3        29.97F
DETROIT CITY   CLEAR     13   3  64 N7        29.93F
DETROIT        MOCLDY    12   4  70 N7        29.93F
FLINT          CLEAR     13   7  77 NE7       29.94F
GROSSE ILE     PTCLDY    12   3  67 N7        29.91S
HILLSDALE      CLEAR     10   7  87 NE3       29.87F
HOWELL         CLEAR      9   7  92 NE3       29.91F

CITY           SKY/WX    TMP DP  RH WIND       PRES   REMARKS
JACKSON          N/A      9   5  84 N3        29.90F
LAMBERTVILLE   CLEAR     14   3  62 N5        29.91F
LANSING        CLEAR      9   5  84 N5        29.94F
LAPEER         NOT AVBL
MASON          CLEAR     10   7  87 N3        29.92S
MONROE         CLEAR     12   3  67 N6        29.90S
MT. CLEMENS    PTCLDY     9   3  76 N8        29.92F
PONTIAC        CLEAR      8   4  83 N6        29.90F
PORT HOPE        N/A     17   9  70 E8        29.97F
PORT HURON     PTCLDY     5   1  85 NW5       29.94F
TRI CITIES     CLEAR      9   4  80 N7        29.98S
YPSILANTI      CLEAR     13   4  67 N7        29.92F
$$
MIZ043>046-050>051-056>058-064>065-071>073-077>080-261200-
SOUTHWEST LOWER MICHIGAN

CITY           SKY/WX    TMP DP  RH WIND       PRES   REMARKS
BATTLE CREEK   CLEAR     11   6  81 NE3       29.92F
BENTON HARBOR  CLEAR     10   8  92 CALM      29.97R
BIG RAPIDS     PTCLDY     1  -1  89 CALM      29.96S
COLDWATER      CLEAR      9   7  92 N3        29.91S
HOLLAND        CLEAR     11   6  81 CALM      29.99R
GRAND RAPIDS   CLEAR      9   5  84 N5        29.97R
KALAMAZOO      CLEAR      8   4  83 N7        29.94R
MARSHALL       CLEAR     10   7  89 CALM      29.91F
MUSKEGON       PTCLDY    10   4  76 N3        30.00S
$$
MIZ016>042-261200-
NORTHERN LOWER MICHIGAN

CITY           SKY/WX    TMP DP  RH WIND       PRES   REMARKS
ALPENA         LGT SNOW  -1  -5  82 CALM      30.01F FOG
BEAVER ISLAND  PTCLDY    -2  -5  86 CALM      30.00S
BELLAIRE       PTCLDY    -7 -11  81 CALM      30.02R
CADILLAC       LGT SNOW  -6 -13  70 CALM      29.93S
CHARLEVOIX     PTCLDY    -2  -5  87 CALM      30.03S
FRANKFORT      MOSUNNY    2  -1  88 CALM      30.00S
GAYLORD        MOCLDY   -13 -18  78 CALM      29.94S
GRAYLING       PTCLDY   -14 -21  70 CALM      29.97S
HARBOR SPRINGS PTCLDY    -6 -10  82 NE3       30.00S
HOUGHTON LAKE  PTCLDY    -7 -12  79 CALM      29.96S
MANISTEE       PTCLDY     1  -2  85 E5        29.99F
OSCODA         CLOUDY    14  10  83 CALM      29.99R
PELLSTON       MOCLDY   -15 -20  78 CALM      30.02S
TRAVERSE CITY  PTCLDY     2  -3  80 CALM      29.99F
$$
MIZ007>008-015-261200-
EASTERN UPPER MICHIGAN

CITY           SKY/WX    TMP DP  RH WIND       PRES   REMARKS
KINROSS        MOCLDY    -2  -6  84 E7        30.01S
MACKINAC ISLAN MOCLDY     8   3  80 S5        30.00S
NEWBERRY       MOCLDY    -4  -6  92 E3        29.98F
S. S. MARIE    MOCLDY    -3  -9  75 E5        30.02S
$$
MIZ004>006-011>014-085-261200-
CENTRAL UPPER MICHIGAN

CITY           SKY/WX    TMP DP  RH WIND       PRES   REMARKS
MANISTIQUE     FLURRIES  19  13  77 SE8       29.97F
ESCANABA       CLOUDY     0  -4  85 CALM      29.95S
MENOMINEE      MOCLDY     7   3  85 NW3       29.96S
SAWYER-GWINN   CLOUDY     6   3  86 W3        29.89F
$$
MIZ001>003-009>011-084-261200-
WESTERN UPPER MICHIGAN

CITY           SKY/WX    TMP DP  RH WIND       PRES   REMARKS
IRON MOUNTAIN  CLOUDY     3  -1  83 CALM      29.89F
HOUGHTON       PTCLDY    10   3  73 S8        29.82F
COPPER HARBOR    N/A     17   9  70 SW3       29.87F
IRONWOOD       MOCLDY    18  12  79 S5        29.78F
$$

ABBREVIATIONS USED IN REMARKS
   TC - TEMPERATURE IN CELSIUS
  WCI - WIND CHILL INDEX
   HX - HEAT INDEX
  VSB - VISIBILITY




USA.gov is the U.S. government's official web portal to all federal, state and local government web resources and services.